owner,sensor,date,latitude,longitude,vertical_datum,sea_water_practical_salinity,qcFlag 
TABS,ioos:station:wmo:42051:1,2017-10-01T00:00:00Z,29.6350,-93.6417,2.0,20.5808,11111222 
TABS,ioos:station:wmo:42051:1,2017-10-01T00:30:00Z,29.6350,-93.6417,2.0,20.8356,11111222 
TABS,ioos:station:wmo:42051:1,2017-10-01T01:00:00Z,29.6350,-93.6417,2.0,21.103,11111222 
TABS,ioos:station:wmo:42051:1,2017-10-01T01:30:00Z,29.6350,-93.6417,2.0,20.9995,11111222 
TABS,ioos:station:wmo:42051:1,2017-10-01T02:00:00Z,29.6350,-93.6417,2.0,20.209,11111222 
TABS,ioos:station:wmo:42051:1,2017-10-01T02:30:00Z,29.6350,-93.6417,2.0,20.3221,11111222 
TABS,ioos:station:wmo:42051:1,2017-10-01T03:00:00Z,29.6350,-93.6417,2.0,20.3052,11111222 
TABS,ioos:station:wmo:42051:1,2017-10-01T03:30:00Z,29.6350,-93.6417,2.0,19.9206,11111222 
TABS,ioos:station:wmo:42051:1,2017-10-01T04:00:00Z,29.6350,-93.6417,2.0,19.7469,11111222 
TABS,ioos:station:wmo:42051:1,2017-10-01T04:30:00Z,29.6350,-93.6417,2.0,19.5349,11111222 
TABS,ioos:station:wmo:42051:1,2017-10-01T05:00:00Z,29.6350,-93.6417,2.0,19.5414,11111222 
TABS,ioos:station:wmo:42051:1,2017-10-01T05:30:00Z,29.6350,-93.6417,2.0,19.1788,11111222 
TABS,ioos:station:wmo:42051:1,2017-10-01T06:00:00Z,29.6350,-93.6417,2.0,19.0204,11111222 
TABS,ioos:station:wmo:42051:1,2017-10-01T06:30:00Z,29.6350,-93.6417,2.0,19.2245,11111222 
TABS,ioos:station:wmo:42051:1,2017-10-01T07:00:00Z,29.6350,-93.6417,2.0,19.7076,11111222 
TABS,ioos:station:wmo:42051:1,2017-10-01T07:30:00Z,29.6350,-93.6417,2.0,20.8126,11111222 
TABS,ioos:station:wmo:42051:1,2017-10-01T08:00:00Z,29.6350,-93.6417,2.0,21.4743,11111222 
TABS,ioos:station:wmo:42051:1,2017-10-01T08:30:00Z,29.6350,-93.6417,2.0,22.8884,11111222 
TABS,ioos:station:wmo:42051:1,2017-10-01T09:00:00Z,29.6350,-93.6417,2.0,23.6553,11111222 
TABS,ioos:station:wmo:42051:1,2017-10-01T09:30:00Z,29.6350,-93.6417,2.0,23.7627,11111222 
TABS,ioos:station:wmo:42051:1,2017-10-01T10:00:00Z,29.6350,-93.6417,2.0,23.996,11111222 
TABS,ioos:station:wmo:42051:1,2017-10-01T10:30:00Z,29.6350,-93.6417,2.0,24.137,11111222 
TABS,ioos:station:wmo:42051:1,2017-10-01T11:00:00Z,29.6350,-93.6417,2.0,24.3034,11111222 
TABS,ioos:station:wmo:42051:1,2017-10-01T11:30:00Z,29.6350,-93.6417,2.0,24.2771,11111222 
TABS,ioos:station:wmo:42051:1,2017-10-01T12:00:00Z,29.6350,-93.6417,2.0,24.2247,11111222 
TABS,ioos:station:wmo:42051:1,2017-10-01T12:30:00Z,29.6350,-93.6417,2.0,24.079,11111222 
TABS,ioos:station:wmo:42051:1,2017-10-01T13:00:00Z,29.6350,-93.6417,2.0,23.9761,11111222 
TABS,ioos:station:wmo:42051:1,2017-10-01T13:30:00Z,29.6350,-93.6417,2.0,22.7203,11111222 
TABS,ioos:station:wmo:42051:1,2017-10-01T14:00:00Z,29.6350,-93.6417,2.0,22.9797,11111222 
TABS,ioos:station:wmo:42051:1,2017-10-01T14:30:00Z,29.6350,-93.6417,2.0,23.4497,11111222 
TABS,ioos:station:wmo:42051:1,2017-10-01T15:00:00Z,29.6350,-93.6417,2.0,23.2953,11111222 
TABS,ioos:station:wmo:42051:1,2017-10-01T15:30:00Z,29.6350,-93.6417,2.0,23.3828,11111222 
TABS,ioos:station:wmo:42051:1,2017-10-01T16:00:00Z,29.6350,-93.6417,2.0,23.819,11111222 
TABS,ioos:station:wmo:42051:1,2017-10-01T16:30:00Z,29.6350,-93.6417,2.0,23.5089,11111222 
TABS,ioos:station:wmo:42051:1,2017-10-01T17:00:00Z,29.6350,-93.6417,2.0,23.4475,11111222 
TABS,ioos:station:wmo:42051:1,2017-10-01T17:30:00Z,29.6350,-93.6417,2.0,23.037,11111222 
TABS,ioos:station:wmo:42051:1,2017-10-01T18:00:00Z,29.6350,-93.6417,2.0,23.1039,11111222 
TABS,ioos:station:wmo:42051:1,2017-10-01T18:30:00Z,29.6350,-93.6417,2.0,23.2234,11111222 
TABS,ioos:station:wmo:42051:1,2017-10-01T19:00:00Z,29.6350,-93.6417,2.0,23.1865,11111222 
TABS,ioos:station:wmo:42051:1,2017-10-01T19:30:00Z,29.6350,-93.6417,2.0,23.0179,11111222 
TABS,ioos:station:wmo:42051:1,2017-10-01T20:00:00Z,29.6350,-93.6417,2.0,23.0279,11111222 
TABS,ioos:station:wmo:42051:1,2017-10-01T20:30:00Z,29.6350,-93.6417,2.0,22.9762,11111222 
TABS,ioos:station:wmo:42051:1,2017-10-01T21:00:00Z,29.6350,-93.6417,2.0,22.8779,11111222 
TABS,ioos:station:wmo:42051:1,2017-10-01T21:30:00Z,29.6350,-93.6417,2.0,22.7612,11111222 
TABS,ioos:station:wmo:42051:1,2017-10-01T22:00:00Z,29.6350,-93.6417,2.0,22.722,11111222 
TABS,ioos:station:wmo:42051:1,2017-10-01T22:30:00Z,29.6350,-93.6417,2.0,22.6187,11111222 
TABS,ioos:station:wmo:42051:1,2017-10-01T23:00:00Z,29.6350,-93.6417,2.0,22.5783,11111222 
TABS,ioos:station:wmo:42051:1,2017-10-01T23:30:00Z,29.6350,-93.6417,2.0,22.4416,11111222 
TABS,ioos:station:wmo:42051:1,2017-10-02T00:00:00Z,29.6350,-93.6417,2.0,22.4478,11111222 
TABS,ioos:station:wmo:42051:1,2017-10-02T00:30:00Z,29.6350,-93.6417,2.0,22.522,11111222 
TABS,ioos:station:wmo:42051:1,2017-10-02T01:00:00Z,29.6350,-93.6417,2.0,22.6266,11111222 
TABS,ioos:station:wmo:42051:1,2017-10-02T01:30:00Z,29.6350,-93.6417,2.0,22.506,11111222 
TABS,ioos:station:wmo:42051:1,2017-10-02T02:00:00Z,29.6350,-93.6417,2.0,22.5052,11111222 
TABS,ioos:station:wmo:42051:1,2017-10-02T02:30:00Z,29.6350,-93.6417,2.0,22.5157,11111222 
TABS,ioos:station:wmo:42051:1,2017-10-02T03:00:00Z,29.6350,-93.6417,2.0,22.4603,11111222 
TABS,ioos:station:wmo:42051:1,2017-10-02T03:30:00Z,29.6350,-93.6417,2.0,22.5142,11111222 
TABS,ioos:station:wmo:42051:1,2017-10-02T04:00:00Z,29.6350,-93.6417,2.0,22.7056,11111222 
TABS,ioos:station:wmo:42051:1,2017-10-02T04:30:00Z,29.6350,-93.6417,2.0,22.6539,11111222 
TABS,ioos:station:wmo:42051:1,2017-10-02T05:00:00Z,29.6350,-93.6417,2.0,22.7567,11111222 
TABS,ioos:station:wmo:42051:1,2017-10-02T05:30:00Z,29.6350,-93.6417,2.0,23.065,11111222 
TABS,ioos:station:wmo:42051:1,2017-10-02T06:00:00Z,29.6350,-93.6417,2.0,23.1796,11111222 
TABS,ioos:station:wmo:42051:1,2017-10-02T06:30:00Z,29.6350,-93.6417,2.0,23.4054,11111222 
TABS,ioos:station:wmo:42051:1,2017-10-02T07:00:00Z,29.6350,-93.6417,2.0,23.5754,11111222 
TABS,ioos:station:wmo:42051:1,2017-10-02T07:30:00Z,29.6350,-93.6417,2.0,23.8806,11111222 
TABS,ioos:station:wmo:42051:1,2017-10-02T08:00:00Z,29.6350,-93.6417,2.0,24.2985,11111222 
TABS,ioos:station:wmo:42051:1,2017-10-02T08:30:00Z,29.6350,-93.6417,2.0,24.7375,11111222 
TABS,ioos:station:wmo:42051:1,2017-10-02T09:00:00Z,29.6350,-93.6417,2.0,25.0095,11111222 
TABS,ioos:station:wmo:42051:1,2017-10-02T09:30:00Z,29.6350,-93.6417,2.0,25.1402,11111222 
TABS,ioos:station:wmo:42051:1,2017-10-02T10:00:00Z,29.6350,-93.6417,2.0,25.2952,11111222 
TABS,ioos:station:wmo:42051:1,2017-10-02T10:30:00Z,29.6350,-93.6417,2.0,25.2804,11111222 
TABS,ioos:station:wmo:42051:1,2017-10-02T11:00:00Z,29.6350,-93.6417,2.0,25.2918,11111222 
TABS,ioos:station:wmo:42051:1,2017-10-02T11:30:00Z,29.6350,-93.6417,2.0,25.2476,11111222 
TABS,ioos:station:wmo:42051:1,2017-10-02T12:00:00Z,29.6350,-93.6417,2.0,25.2902,11111222 
TABS,ioos:station:wmo:42051:1,2017-10-02T12:30:00Z,29.6350,-93.6417,2.0,25.249,11111222 
TABS,ioos:station:wmo:42051:1,2017-10-02T13:00:00Z,29.6350,-93.6417,2.0,25.2228,11111222 
TABS,ioos:station:wmo:42051:1,2017-10-02T13:30:00Z,29.6350,-93.6417,2.0,25.0805,11111222 
TABS,ioos:station:wmo:42051:1,2017-10-02T14:00:00Z,29.6350,-93.6417,2.0,24.7704,11111222 
TABS,ioos:station:wmo:42051:1,2017-10-02T14:30:00Z,29.6350,-93.6417,2.0,24.7764,11111222 
TABS,ioos:station:wmo:42051:1,2017-10-02T15:00:00Z,29.6350,-93.6417,2.0,24.7652,11111222 
TABS,ioos:station:wmo:42051:1,2017-10-02T15:30:00Z,29.6350,-93.6417,2.0,24.3957,11111222 
TABS,ioos:station:wmo:42051:1,2017-10-02T16:00:00Z,29.6350,-93.6417,2.0,24.2841,11111222 
TABS,ioos:station:wmo:42051:1,2017-10-02T16:30:00Z,29.6350,-93.6417,2.0,24.4171,11111222 
TABS,ioos:station:wmo:42051:1,2017-10-02T17:00:00Z,29.6350,-93.6417,2.0,24.6053,11111222 
TABS,ioos:station:wmo:42051:1,2017-10-02T17:30:00Z,29.6350,-93.6417,2.0,24.3343,11111222 
TABS,ioos:station:wmo:42051:1,2017-10-02T18:00:00Z,29.6350,-93.6417,2.0,24.1924,11111222 
TABS,ioos:station:wmo:42051:1,2017-10-02T18:30:00Z,29.6350,-93.6417,2.0,24.107,11111222 
TABS,ioos:station:wmo:42051:1,2017-10-02T19:00:00Z,29.6350,-93.6417,2.0,23.6871,11111222 
TABS,ioos:station:wmo:42051:1,2017-10-02T19:30:00Z,29.6350,-93.6417,2.0,23.5439,11111222 
TABS,ioos:station:wmo:42051:1,2017-10-02T20:00:00Z,29.6350,-93.6417,2.0,23.2761,11111222 
TABS,ioos:station:wmo:42051:1,2017-10-02T20:30:00Z,29.6350,-93.6417,2.0,23.2857,11111222 
TABS,ioos:station:wmo:42051:1,2017-10-02T21:00:00Z,29.6350,-93.6417,2.0,23.4251,11111222 
TABS,ioos:station:wmo:42051:1,2017-10-02T21:30:00Z,29.6350,-93.6417,2.0,23.3349,11111222 
TABS,ioos:station:wmo:42051:1,2017-10-02T22:00:00Z,29.6350,-93.6417,2.0,23.5704,11111222 
TABS,ioos:station:wmo:42051:1,2017-10-02T22:30:00Z,29.6350,-93.6417,2.0,23.6458,11111222 
TABS,ioos:station:wmo:42051:1,2017-10-02T23:00:00Z,29.6350,-93.6417,2.0,23.547,11111222 
TABS,ioos:station:wmo:42051:1,2017-10-02T23:30:00Z,29.6350,-93.6417,2.0,23.4029,11111222 
TABS,ioos:station:wmo:42051:1,2017-10-03T00:00:00Z,29.6350,-93.6417,2.0,23.5298,11111222 
TABS,ioos:station:wmo:42051:1,2017-10-03T00:30:00Z,29.6350,-93.6417,2.0,23.3344,11111222 
TABS,ioos:station:wmo:42051:1,2017-10-03T01:00:00Z,29.6350,-93.6417,2.0,23.0862,11111222 
TABS,ioos:station:wmo:42051:1,2017-10-03T01:30:00Z,29.6350,-93.6417,2.0,22.9851,11111222 
TABS,ioos:station:wmo:42051:1,2017-10-03T02:00:00Z,29.6350,-93.6417,2.0,23.0771,11111222 
TABS,ioos:station:wmo:42051:1,2017-10-03T02:30:00Z,29.6350,-93.6417,2.0,22.9568,11111222 
TABS,ioos:station:wmo:42051:1,2017-10-03T03:00:00Z,29.6350,-93.6417,2.0,23.0274,11111222 
TABS,ioos:station:wmo:42051:1,2017-10-03T03:30:00Z,29.6350,-93.6417,2.0,23.0328,11111222 
TABS,ioos:station:wmo:42051:1,2017-10-03T04:00:00Z,29.6350,-93.6417,2.0,23.0601,11111222 
TABS,ioos:station:wmo:42051:1,2017-10-03T04:30:00Z,29.6350,-93.6417,2.0,22.9489,11111222 
TABS,ioos:station:wmo:42051:1,2017-10-03T05:00:00Z,29.6350,-93.6417,2.0,22.8273,11111222 
TABS,ioos:station:wmo:42051:1,2017-10-03T05:30:00Z,29.6350,-93.6417,2.0,22.7831,11111222 
TABS,ioos:station:wmo:42051:1,2017-10-03T06:00:00Z,29.6350,-93.6417,2.0,22.9231,11111222 
TABS,ioos:station:wmo:42051:1,2017-10-03T06:30:00Z,29.6350,-93.6417,2.0,22.7965,11111222 
TABS,ioos:station:wmo:42051:1,2017-10-03T07:00:00Z,29.6350,-93.6417,2.0,22.6003,11111222 
TABS,ioos:station:wmo:42051:1,2017-10-03T07:30:00Z,29.6350,-93.6417,2.0,22.8806,11111222 
TABS,ioos:station:wmo:42051:1,2017-10-03T08:00:00Z,29.6350,-93.6417,2.0,22.8284,11111222 
TABS,ioos:station:wmo:42051:1,2017-10-03T08:30:00Z,29.6350,-93.6417,2.0,22.9118,11111222 
TABS,ioos:station:wmo:42051:1,2017-10-03T09:00:00Z,29.6350,-93.6417,2.0,22.652,11111222 
TABS,ioos:station:wmo:42051:1,2017-10-03T09:30:00Z,29.6350,-93.6417,2.0,22.3887,11111222 
TABS,ioos:station:wmo:42051:1,2017-10-03T10:00:00Z,29.6350,-93.6417,2.0,22.0686,11111222 
TABS,ioos:station:wmo:42051:1,2017-10-03T10:30:00Z,29.6350,-93.6417,2.0,21.9419,11111222 
TABS,ioos:station:wmo:42051:1,2017-10-03T11:00:00Z,29.6350,-93.6417,2.0,22.1934,11111222 
TABS,ioos:station:wmo:42051:1,2017-10-03T11:30:00Z,29.6350,-93.6417,2.0,22.1452,11111222 
TABS,ioos:station:wmo:42051:1,2017-10-03T12:00:00Z,29.6350,-93.6417,2.0,21.9011,11111222 
TABS,ioos:station:wmo:42051:1,2017-10-03T12:30:00Z,29.6350,-93.6417,2.0,22.1618,11111222 
TABS,ioos:station:wmo:42051:1,2017-10-03T13:00:00Z,29.6350,-93.6417,2.0,22.3878,11111222 
TABS,ioos:station:wmo:42051:1,2017-10-03T13:30:00Z,29.6350,-93.6417,2.0,22.4948,11111222 
TABS,ioos:station:wmo:42051:1,2017-10-03T14:00:00Z,29.6350,-93.6417,2.0,22.6464,11111222 
TABS,ioos:station:wmo:42051:1,2017-10-03T14:30:00Z,29.6350,-93.6417,2.0,22.7892,11111222 
TABS,ioos:station:wmo:42051:1,2017-10-03T15:00:00Z,29.6350,-93.6417,2.0,23.1056,11111222 
TABS,ioos:station:wmo:42051:1,2017-10-03T15:30:00Z,29.6350,-93.6417,2.0,23.3492,11111222 
TABS,ioos:station:wmo:42051:1,2017-10-03T16:00:00Z,29.6350,-93.6417,2.0,22.7397,11111222 
TABS,ioos:station:wmo:42051:1,2017-10-03T16:30:00Z,29.6350,-93.6417,2.0,22.8666,11111222 
TABS,ioos:station:wmo:42051:1,2017-10-03T17:00:00Z,29.6350,-93.6417,2.0,22.7027,11111222 
TABS,ioos:station:wmo:42051:1,2017-10-03T17:30:00Z,29.6350,-93.6417,2.0,22.8302,11111222 
TABS,ioos:station:wmo:42051:1,2017-10-03T18:00:00Z,29.6350,-93.6417,2.0,22.6559,11111222 
TABS,ioos:station:wmo:42051:1,2017-10-03T18:30:00Z,29.6350,-93.6417,2.0,22.6571,11111222 
TABS,ioos:station:wmo:42051:1,2017-10-03T19:00:00Z,29.6350,-93.6417,2.0,22.5487,11111222 
TABS,ioos:station:wmo:42051:1,2017-10-03T19:30:00Z,29.6350,-93.6417,2.0,22.545,11111222 
TABS,ioos:station:wmo:42051:1,2017-10-03T20:00:00Z,29.6350,-93.6417,2.0,22.4446,11111222 
TABS,ioos:station:wmo:42051:1,2017-10-03T20:30:00Z,29.6350,-93.6417,2.0,22.3597,11111222 
TABS,ioos:station:wmo:42051:1,2017-10-03T21:00:00Z,29.6350,-93.6417,2.0,22.7733,11111222 
TABS,ioos:station:wmo:42051:1,2017-10-03T21:30:00Z,29.6350,-93.6417,2.0,23.076,11111222 
TABS,ioos:station:wmo:42051:1,2017-10-03T22:00:00Z,29.6350,-93.6417,2.0,23.7025,11111222 
TABS,ioos:station:wmo:42051:1,2017-10-03T22:30:00Z,29.6350,-93.6417,2.0,23.5601,11111222 
TABS,ioos:station:wmo:42051:1,2017-10-03T23:00:00Z,29.6350,-93.6417,2.0,23.3599,11111222 
TABS,ioos:station:wmo:42051:1,2017-10-03T23:30:00Z,29.6350,-93.6417,2.0,23.1753,11111222 
TABS,ioos:station:wmo:42051:1,2017-10-04T00:00:00Z,29.6350,-93.6417,2.0,23.1298,11111222 
TABS,ioos:station:wmo:42051:1,2017-10-04T00:30:00Z,29.6350,-93.6417,2.0,23.2368,11111222 
TABS,ioos:station:wmo:42051:1,2017-10-04T01:00:00Z,29.6350,-93.6417,2.0,23.5827,11111222 
TABS,ioos:station:wmo:42051:1,2017-10-04T01:30:00Z,29.6350,-93.6417,2.0,23.3607,11111222 
TABS,ioos:station:wmo:42051:1,2017-10-04T02:00:00Z,29.6350,-93.6417,2.0,23.3331,11111222 
TABS,ioos:station:wmo:42051:1,2017-10-04T02:30:00Z,29.6350,-93.6417,2.0,23.3246,11111222 
TABS,ioos:station:wmo:42051:1,2017-10-04T03:00:00Z,29.6350,-93.6417,2.0,23.4559,11111222 
TABS,ioos:station:wmo:42051:1,2017-10-04T03:30:00Z,29.6350,-93.6417,2.0,24.3806,11111222 
TABS,ioos:station:wmo:42051:1,2017-10-04T04:00:00Z,29.6350,-93.6417,2.0,24.729,11111222 
TABS,ioos:station:wmo:42051:1,2017-10-04T04:30:00Z,29.6350,-93.6417,2.0,24.8854,11111222 
TABS,ioos:station:wmo:42051:1,2017-10-04T05:00:00Z,29.6350,-93.6417,2.0,24.4913,11111222 
TABS,ioos:station:wmo:42051:1,2017-10-04T05:30:00Z,29.6350,-93.6417,2.0,24.1858,11111222 
TABS,ioos:station:wmo:42051:1,2017-10-04T06:00:00Z,29.6350,-93.6417,2.0,23.9047,11111222 
TABS,ioos:station:wmo:42051:1,2017-10-04T06:30:00Z,29.6350,-93.6417,2.0,23.2452,11111222 
TABS,ioos:station:wmo:42051:1,2017-10-04T07:00:00Z,29.6350,-93.6417,2.0,23.072,11111222 
TABS,ioos:station:wmo:42051:1,2017-10-04T07:30:00Z,29.6350,-93.6417,2.0,23.7643,11111222 
TABS,ioos:station:wmo:42051:1,2017-10-04T08:00:00Z,29.6350,-93.6417,2.0,24.4235,11111222 
TABS,ioos:station:wmo:42051:1,2017-10-04T08:30:00Z,29.6350,-93.6417,2.0,25.4768,11111222 
TABS,ioos:station:wmo:42051:1,2017-10-04T09:00:00Z,29.6350,-93.6417,2.0,25.1288,11111222 
TABS,ioos:station:wmo:42051:1,2017-10-04T09:30:00Z,29.6350,-93.6417,2.0,25.7692,11111222 
TABS,ioos:station:wmo:42051:1,2017-10-04T10:00:00Z,29.6350,-93.6417,2.0,25.6778,11111222 
TABS,ioos:station:wmo:42051:1,2017-10-04T10:30:00Z,29.6350,-93.6417,2.0,26.0616,11111222 
TABS,ioos:station:wmo:42051:1,2017-10-04T11:00:00Z,29.6350,-93.6417,2.0,26.2384,11111222 
TABS,ioos:station:wmo:42051:1,2017-10-04T11:30:00Z,29.6350,-93.6417,2.0,26.0412,11111222 
TABS,ioos:station:wmo:42051:1,2017-10-04T12:00:00Z,29.6350,-93.6417,2.0,25.7499,11111222 
TABS,ioos:station:wmo:42051:1,2017-10-04T12:30:00Z,29.6350,-93.6417,2.0,25.4498,11111222 
TABS,ioos:station:wmo:42051:1,2017-10-04T13:00:00Z,29.6350,-93.6417,2.0,25.0989,11111222 
TABS,ioos:station:wmo:42051:1,2017-10-04T13:30:00Z,29.6350,-93.6417,2.0,24.7902,11111222 
TABS,ioos:station:wmo:42051:1,2017-10-04T14:00:00Z,29.6350,-93.6417,2.0,24.3594,11111222 
TABS,ioos:station:wmo:42051:1,2017-10-04T14:30:00Z,29.6350,-93.6417,2.0,24.4346,11111222 
TABS,ioos:station:wmo:42051:1,2017-10-04T15:00:00Z,29.6350,-93.6417,2.0,24.4251,11111222 
TABS,ioos:station:wmo:42051:1,2017-10-04T15:30:00Z,29.6350,-93.6417,2.0,24.5547,11111222 
TABS,ioos:station:wmo:42051:1,2017-10-04T16:00:00Z,29.6350,-93.6417,2.0,24.8948,11111222 
TABS,ioos:station:wmo:42051:1,2017-10-04T16:30:00Z,29.6350,-93.6417,2.0,24.9687,11111222 
TABS,ioos:station:wmo:42051:1,2017-10-04T17:00:00Z,29.6350,-93.6417,2.0,25.3191,11111222 
TABS,ioos:station:wmo:42051:1,2017-10-04T17:30:00Z,29.6350,-93.6417,2.0,24.8463,11111222 
TABS,ioos:station:wmo:42051:1,2017-10-04T18:00:00Z,29.6350,-93.6417,2.0,24.2255,11111222 
TABS,ioos:station:wmo:42051:1,2017-10-04T18:30:00Z,29.6350,-93.6417,2.0,24.5529,11111222 
TABS,ioos:station:wmo:42051:1,2017-10-04T19:00:00Z,29.6350,-93.6417,2.0,24.9886,11111222 
TABS,ioos:station:wmo:42051:1,2017-10-04T19:30:00Z,29.6350,-93.6417,2.0,24.4481,11111222 
TABS,ioos:station:wmo:42051:1,2017-10-04T20:00:00Z,29.6350,-93.6417,2.0,24.8556,11111222 
TABS,ioos:station:wmo:42051:1,2017-10-04T20:30:00Z,29.6350,-93.6417,2.0,24.7158,11111222 
TABS,ioos:station:wmo:42051:1,2017-10-04T21:00:00Z,29.6350,-93.6417,2.0,24.4869,11111222 
TABS,ioos:station:wmo:42051:1,2017-10-04T21:30:00Z,29.6350,-93.6417,2.0,24.2952,11111222 
TABS,ioos:station:wmo:42051:1,2017-10-04T22:00:00Z,29.6350,-93.6417,2.0,24.539,11111222 
TABS,ioos:station:wmo:42051:1,2017-10-04T22:30:00Z,29.6350,-93.6417,2.0,24.376,11111222 
TABS,ioos:station:wmo:42051:1,2017-10-04T23:00:00Z,29.6350,-93.6417,2.0,24.2427,11111222 
TABS,ioos:station:wmo:42051:1,2017-10-04T23:30:00Z,29.6350,-93.6417,2.0,24.0052,11111222 
TABS,ioos:station:wmo:42051:1,2017-10-05T00:00:00Z,29.6350,-93.6417,2.0,23.6973,11111222 
TABS,ioos:station:wmo:42051:1,2017-10-05T00:30:00Z,29.6350,-93.6417,2.0,23.6625,11111222 
TABS,ioos:station:wmo:42051:1,2017-10-05T01:00:00Z,29.6350,-93.6417,2.0,23.5955,11111222 
TABS,ioos:station:wmo:42051:1,2017-10-05T01:30:00Z,29.6350,-93.6417,2.0,23.436,11111222 
TABS,ioos:station:wmo:42051:1,2017-10-05T02:00:00Z,29.6350,-93.6417,2.0,23.5387,11111222 
TABS,ioos:station:wmo:42051:1,2017-10-05T02:30:00Z,29.6350,-93.6417,2.0,23.6077,11111222 
TABS,ioos:station:wmo:42051:1,2017-10-05T03:00:00Z,29.6350,-93.6417,2.0,23.8059,11111222 
TABS,ioos:station:wmo:42051:1,2017-10-05T03:30:00Z,29.6350,-93.6417,2.0,23.7843,11111222 
TABS,ioos:station:wmo:42051:1,2017-10-05T04:00:00Z,29.6350,-93.6417,2.0,23.9437,11111222 
TABS,ioos:station:wmo:42051:1,2017-10-05T04:30:00Z,29.6350,-93.6417,2.0,24.0081,11111222 
TABS,ioos:station:wmo:42051:1,2017-10-05T05:00:00Z,29.6350,-93.6417,2.0,24.2375,11111222 
TABS,ioos:station:wmo:42051:1,2017-10-05T05:30:00Z,29.6350,-93.6417,2.0,24.3097,11111222 
TABS,ioos:station:wmo:42051:1,2017-10-05T06:00:00Z,29.6350,-93.6417,2.0,24.3831,11111222 
TABS,ioos:station:wmo:42051:1,2017-10-05T06:30:00Z,29.6350,-93.6417,2.0,24.5209,11111222 
TABS,ioos:station:wmo:42051:1,2017-10-05T07:00:00Z,29.6350,-93.6417,2.0,24.7808,11111222 
TABS,ioos:station:wmo:42051:1,2017-10-05T07:30:00Z,29.6350,-93.6417,2.0,24.7451,11111222 
TABS,ioos:station:wmo:42051:1,2017-10-05T08:00:00Z,29.6350,-93.6417,2.0,24.1316,11111222 
TABS,ioos:station:wmo:42051:1,2017-10-05T08:30:00Z,29.6350,-93.6417,2.0,23.6078,11111222 
TABS,ioos:station:wmo:42051:1,2017-10-05T09:00:00Z,29.6350,-93.6417,2.0,23.643,11111222 
TABS,ioos:station:wmo:42051:1,2017-10-05T09:30:00Z,29.6350,-93.6417,2.0,24.1292,11111222 
TABS,ioos:station:wmo:42051:1,2017-10-05T10:00:00Z,29.6350,-93.6417,2.0,24.0149,11111222 
TABS,ioos:station:wmo:42051:1,2017-10-05T10:30:00Z,29.6350,-93.6417,2.0,24.0023,11111222 
TABS,ioos:station:wmo:42051:1,2017-10-05T11:00:00Z,29.6350,-93.6417,2.0,23.9981,11111222 
TABS,ioos:station:wmo:42051:1,2017-10-05T11:30:00Z,29.6350,-93.6417,2.0,24.1954,11111222 
TABS,ioos:station:wmo:42051:1,2017-10-05T12:00:00Z,29.6350,-93.6417,2.0,23.8517,11111222 
TABS,ioos:station:wmo:42051:1,2017-10-05T12:30:00Z,29.6350,-93.6417,2.0,23.3927,11111222 
TABS,ioos:station:wmo:42051:1,2017-10-05T13:00:00Z,29.6350,-93.6417,2.0,22.5056,11111222 
TABS,ioos:station:wmo:42051:1,2017-10-05T13:30:00Z,29.6350,-93.6417,2.0,22.0715,11111222 
TABS,ioos:station:wmo:42051:1,2017-10-05T14:00:00Z,29.6350,-93.6417,2.0,21.7056,11111222 
TABS,ioos:station:wmo:42051:1,2017-10-05T14:30:00Z,29.6350,-93.6417,2.0,21.6788,11111222 
TABS,ioos:station:wmo:42051:1,2017-10-05T15:00:00Z,29.6350,-93.6417,2.0,21.2026,11111222 
TABS,ioos:station:wmo:42051:1,2017-10-05T15:30:00Z,29.6350,-93.6417,2.0,21.647,11111222 
TABS,ioos:station:wmo:42051:1,2017-10-05T16:00:00Z,29.6350,-93.6417,2.0,22.0978,11111222 
TABS,ioos:station:wmo:42051:1,2017-10-05T16:30:00Z,29.6350,-93.6417,2.0,21.9924,11111222 
TABS,ioos:station:wmo:42051:1,2017-10-05T17:00:00Z,29.6350,-93.6417,2.0,21.6452,11111222 
TABS,ioos:station:wmo:42051:1,2017-10-05T17:30:00Z,29.6350,-93.6417,2.0,21.6912,11111222 
TABS,ioos:station:wmo:42051:1,2017-10-05T18:00:00Z,29.6350,-93.6417,2.0,21.8538,11111222 
TABS,ioos:station:wmo:42051:1,2017-10-05T18:30:00Z,29.6350,-93.6417,2.0,22.137,11111222 
TABS,ioos:station:wmo:42051:1,2017-10-05T19:00:00Z,29.6350,-93.6417,2.0,22.2788,11111222 
TABS,ioos:station:wmo:42051:1,2017-10-05T19:30:00Z,29.6350,-93.6417,2.0,22.7327,11111222 
TABS,ioos:station:wmo:42051:1,2017-10-05T20:00:00Z,29.6350,-93.6417,2.0,23.0518,11111222 
TABS,ioos:station:wmo:42051:1,2017-10-05T20:30:00Z,29.6350,-93.6417,2.0,23.3835,11111222 
TABS,ioos:station:wmo:42051:1,2017-10-05T21:00:00Z,29.6350,-93.6417,2.0,23.6624,11111222 
TABS,ioos:station:wmo:42051:1,2017-10-05T21:30:00Z,29.6350,-93.6417,2.0,23.9818,11111222 
TABS,ioos:station:wmo:42051:1,2017-10-05T22:00:00Z,29.6350,-93.6417,2.0,24.206,11111222 
TABS,ioos:station:wmo:42051:1,2017-10-05T22:30:00Z,29.6350,-93.6417,2.0,24.3429,11111222 
TABS,ioos:station:wmo:42051:1,2017-10-05T23:00:00Z,29.6350,-93.6417,2.0,24.7008,11111222 
TABS,ioos:station:wmo:42051:1,2017-10-05T23:30:00Z,29.6350,-93.6417,2.0,24.7967,11111222 
TABS,ioos:station:wmo:42051:1,2017-10-06T00:00:00Z,29.6350,-93.6417,2.0,24.9436,11111222 
TABS,ioos:station:wmo:42051:1,2017-10-06T00:30:00Z,29.6350,-93.6417,2.0,25.1901,11111222 
TABS,ioos:station:wmo:42051:1,2017-10-06T01:00:00Z,29.6350,-93.6417,2.0,25.2763,11111222 
TABS,ioos:station:wmo:42051:1,2017-10-06T01:30:00Z,29.6350,-93.6417,2.0,25.5008,11111222 
TABS,ioos:station:wmo:42051:1,2017-10-06T02:00:00Z,29.6350,-93.6417,2.0,25.4235,11111222 
TABS,ioos:station:wmo:42051:1,2017-10-06T02:30:00Z,29.6350,-93.6417,2.0,25.3805,11111222 
TABS,ioos:station:wmo:42051:1,2017-10-06T03:00:00Z,29.6350,-93.6417,2.0,25.3788,11111222 
TABS,ioos:station:wmo:42051:1,2017-10-06T03:30:00Z,29.6350,-93.6417,2.0,25.3285,11111222 
TABS,ioos:station:wmo:42051:1,2017-10-06T04:00:00Z,29.6350,-93.6417,2.0,25.1857,11111222 
TABS,ioos:station:wmo:42051:1,2017-10-06T04:30:00Z,29.6350,-93.6417,2.0,25.2112,11111222 
TABS,ioos:station:wmo:42051:1,2017-10-06T05:00:00Z,29.6350,-93.6417,2.0,25.0947,11111222 
TABS,ioos:station:wmo:42051:1,2017-10-06T05:30:00Z,29.6350,-93.6417,2.0,25.208,11111222 
TABS,ioos:station:wmo:42051:1,2017-10-06T06:00:00Z,29.6350,-93.6417,2.0,25.2672,11111222 
TABS,ioos:station:wmo:42051:1,2017-10-06T06:30:00Z,29.6350,-93.6417,2.0,25.1902,11111222 
TABS,ioos:station:wmo:42051:1,2017-10-06T07:00:00Z,29.6350,-93.6417,2.0,25.4282,11111222 
TABS,ioos:station:wmo:42051:1,2017-10-06T07:30:00Z,29.6350,-93.6417,2.0,25.5677,11111222 
TABS,ioos:station:wmo:42051:1,2017-10-06T08:00:00Z,29.6350,-93.6417,2.0,25.539,11111222 
TABS,ioos:station:wmo:42051:1,2017-10-06T08:30:00Z,29.6350,-93.6417,2.0,25.4934,11111222 
TABS,ioos:station:wmo:42051:1,2017-10-06T09:00:00Z,29.6350,-93.6417,2.0,25.6045,11111222 
TABS,ioos:station:wmo:42051:1,2017-10-06T09:30:00Z,29.6350,-93.6417,2.0,25.2691,11111222 
TABS,ioos:station:wmo:42051:1,2017-10-06T10:00:00Z,29.6350,-93.6417,2.0,25.116,11111222 
TABS,ioos:station:wmo:42051:1,2017-10-06T10:30:00Z,29.6350,-93.6417,2.0,25.1758,11111222 
TABS,ioos:station:wmo:42051:1,2017-10-06T11:00:00Z,29.6350,-93.6417,2.0,25.1586,11111222 
TABS,ioos:station:wmo:42051:1,2017-10-06T11:30:00Z,29.6350,-93.6417,2.0,25.1967,11111222 
TABS,ioos:station:wmo:42051:1,2017-10-06T12:00:00Z,29.6350,-93.6417,2.0,24.8216,11111222 
TABS,ioos:station:wmo:42051:1,2017-10-06T12:30:00Z,29.6350,-93.6417,2.0,24.6534,11111222 